User: anonymous   Login
Location: Rio Negrinho
(26.2394°S, 49.4999°W)
Time: 03:32:19
(UTC+00:00)
Language:

Cosmos 2123 Rocket - Orbit

View from above orbital plane
View from above orbital plane
View from above satellite
View from above satellite

Ground track
Ground track

The orbit data is extracted from the following two-line orbital elements,

1 21090U 91007B   21138.81518243  .00000045  00000-0  30674-4 0  9999
2 21090  82.9221 252.4228 0020374 356.5935   3.5079 13.76403144520650
Epoch (UTC): 18 May 2021 19:33:51
Eccentricity: 0.0020374
inclination: 82.9221°
perigee height: 961 km
apogee height: 991 km
right ascension of ascending node: 252.4228°
argument of perigee: 356.5935°
revolutions per day: 13.76403144
mean anomaly at epoch: 3.5079°
orbit number at epoch: 52065

The dashed part of the orbit path shows where the satellite is in the earth's shadow,  

DLR